Hourly Data Report for October 05, 2015

All times are specified in Local Standard Time (LST). Add 1 hour to adjust for Daylight Saving Time where and when it is observed.

CLYDE RIVER A
NUNAVUT

70°29'09.000" N
68°31'01.000" W
26.50 m
2400804
71090
YCY

Download Data

Hourly Data (October 2015)
Hourly Data Report for October 5, 2015
Temp Definition
°C
Dew Point Temp Definition
°C
Rel Hum Definition
%
Wind Dir Definition
10's deg

Wind Spd Definition
km/h
Visibility Definition
km
Stn Press Definition
kPa
Hmdx Definition


Wind Chill Definition


Weather Definition


TIME
00:00 Legend Double Dagger -6.4 -8.8 83 26 8 16.1 101.11   -10 LegendNANA
01:00 Legend Double Dagger -5.9 -9.0 79 23 11 16.1 101.07   -11 LegendNANA
02:00 Legend Double Dagger -6.6 -10.3 75 26 11 16.1 101.03   -12 LegendNANA
03:00 Legend Double Dagger -7.2 -11.3 73 25 13 16.1 101.01   -13 LegendNANA
04:00 Legend Double Dagger -6.9 -11.2 72 25 11 16.1 100.98   -12 LegendNANA
05:00 Legend Double Dagger -6.5 -11.7 67 25 13 16.1 100.94   -12 LegendNANA
06:00 Legend Double Dagger -5.9 -10.9 68 24 11 16.1 100.90   -11 LegendNANA
07:00 Legend Double Dagger -5.1 -10.1 68 24 11 16.1 100.87   -10 LegendNANA
08:00 Legend Double Dagger -3.6 -8.1 71 29 17 16.1 100.83   -9 LegendNANA
09:00 Legend Double Dagger -3.0 -7.3 73 29 15 16.1 100.79   -8 Snow
10:00 Legend Double Dagger -2.3 -7.3 69 28 17 16.1 100.76   -8 LegendNANA
11:00 Legend Double Dagger -1.7 -6.1 72 28 13 16.1 100.74   -6 LegendNANA
12:00 Legend Double Dagger -1.0 -6.2 68 26 15 16.1 100.72   -6 LegendNANA
13:00 Legend Double Dagger -0.8 -5.8 69 26 11 16.1 100.73   -5 LegendNANA
14:00 Legend Double Dagger -0.8 -6.0 68 27 9 16.1 100.72   -4 LegendNANA
15:00 Legend Double Dagger -0.9 -6.5 66 25 11 4.0 100.73   -5 Haze
16:00 Legend Double Dagger -1.1 -6.5 67 25 15 11.3 100.73   -6 LegendNANA
17:00 Legend Double Dagger -1.2 -6.4 68 24 15 16.1 100.74   -6 LegendNANA
18:00 Legend Double Dagger -1.3 -5.9 71 24 13 16.1 100.74   -6 LegendNANA
19:00 Legend Double Dagger -1.8 -5.5 76 20 9 16.1 100.73   -5 LegendNANA
20:00 Legend Double Dagger -1.9 -5.9 74 19 21 16.1 100.74   -8 LegendNANA
21:00 Legend Double Dagger -1.4 -6.8 67 21 13 16.1 100.76   -6 LegendNANA
22:00 Legend Double Dagger -2.0 -6.4 72 20 9 16.1 100.77   -5 LegendNANA
23:00 Legend Double Dagger -2.0 -6.0 74 18 9 16.1 100.76   -5 LegendNANA

Notes on Data Quality.

Legend

  • E = Estimated
  • M = Missing
  • NA = Not Available
  • ‡ = Partner data that is not subject to review by the National Climate Archives
Date modified: